www.pogodaiklimat.ru

Погода и климат >> Архив погоды >> Киргизия >> Бишкек


АРХИВ ПОГОДЫ в Бишкеке

Время (UTC), дата Ветер
(напр.,м/с)
 
Видим.   Явления Облачность Т
(С)
Тd
(С)
f
(%)
Тe
(С)
Тes
(С)
Комфортность P
(гПа)
Po
(гПа)
Тmin
(С)
Tmax
(С)
R
(мм)
R24
(мм)
S
(см)
15 13.07 ЮВ 2 н/о в посл. час гроза {ливн. осадки} 6/3 600 м
[Cb cap Ac trans]
+24.3 +13.1 50 +26 +26 жарко 1001.8 919.7 +34.6
18 13.07 В 2 н/о в посл. час гроза {ливн. осадки} 8/4 600 м
[Cb cap Ac trans]
+23.3 +13.7 55 +27 +27 душно 1002.6 920.2 +34.6 0.0
21 13.07 В 2 н/о гроза без осадков 8/3 600 м
[Cb cap Ac trans]
+23.7 +11.7 47 +25 +25 комфорт 1000.7 918.5
00 14.07 ЮВ 2 20 км слабый ливневой дождь {гроза} 8/6 600 м
[Cb cap Ac trans Ci fib]
+21.3 +12.9 59 +24 +24 комфорт 1002.3 919.4
03 14.07 В 2 20 км 8/0
[Ac trans Ci fib]
+24.8 +12.9 48 +27 +31 жарко 1001.1 919.2 +21.5
06 14.07 В 2 20 км {ливн. осадки} 10/4 600 м
[Cb cap Ac trans]
+28.7 +12.7 37 +30 +34 жарко 1000.2 919.4 0.3
09 14.07 З 2
{12}
20 км 10/5 600 м
[Cb cap Ac trans]
+28.7 +9.5 30 +29 +32 жарко 1001.4 920.4
12 14.07 В 2 20 км 10/4 600 м
[Cb cap Ac trans]
+29.8 +8.8 27 +29 +30 жарко 999.6 919.0
15 14.07 З 5 н/о 10/10 600 м
[Cb cap]
+26.7 +11.1 38 +28 +28 жарко 1000.8 919.4 +32.1
18 14.07 В 3 н/о в посл. час ливневой дождь 10/8 600 м
[Cb cap Ac trans]
+20.1 +15.2 73 +23 +23 комфорт 1003.6 920.3 +32.1
21 14.07 В 4 н/о ясно +19.6 +14.2 71 +21 +21 комфорт 1003.0 919.5
00 15.07 В 1 20 км 8/0
[Ac trans]
+19.5 +11.3 59 +22 +22 комфорт 1002.7 919.2
03 15.07 штиль 0 20 км 6/0
[Ac trans]
+29.1 +10.5 31 +29 +36 жарко 1000.2 919.4 +19.0
06 15.07 СЗ 1 20 км 6/3 1000 м
[Cu hum Ac trans]
+31.7 +8.9 24 +31 +42 жарко 999.1 919.0 3
09 15.07 СЗ 2 20 км 4/3 1000 м
[Cu hum Ac trans]
+33.2 +7.3 20 +31 +42 жарко 997.6 917.9
12 15.07 штиль 0 20 км 8/0
[Ac trans Ci fib]
+34.0 +7.3 19 +32 +36 жарко 996.1 916.7
15 15.07 В 2 н/о гроза без осадков 10/3 600 м
[Cb cap Ac trans]
+29.1 +9.7 30 +29 +29 жарко 997.8 917.2 +35.2
18 15.07 Ю 2 н/о {гроза} 8/0
[Ac trans]
+26.8 +11.3 38 +28 +28 жарко 997.3 916.1 +35.2
21 15.07 З 2 н/о 8/0
[Ac trans]
+24.1 +14.0 53 +26 +26 жарко 997.2 916.4
00 16.07 Ю 2 20 км 10/4 600 м
[Cb cap Ac trans]
+25.2 +10.5 40 +26 +26 жарко 999.5 917.7
03 16.07 ЮВ 1 20 км 6/0
[Ac trans]
+28.0 +10.0 32 +28 +34 жарко 999.9 918.8 +23.3
06 16.07 СЗ 1 20 км {гроза, ливн. осадки} 3/0
[Ac trans Ci fib]
+30.6 +8.1 25 +30 +49 жарко 998.8 918.4 0.0
09 16.07 С 1 20 км 4/0
[Ac trans Ci fib]
+32.1 +7.6 22 +31 +47 жарко 997.8 917.8
12 16.07 З 1 20 км 6/3 600 м
[Cb cap Ac trans Ci fib]
+33.4 +8.2 21 +32 +35 жарко 997.1 917.5
15 16.07 Ю 3 н/о 8/5 600 м
[Cb cap Ac trans Ci fib]
+28.3 +12.6 38 +30 +30 жарко 998.6 917.8 +34.3
18 16.07 ЮВ 2 н/о в посл. час гроза 10/3 600 м
[Cb cap Ac trans]
+26.4 +13.3 44 +28 +28 жарко 999.6 918.3 +34.3
21 16.07 штиль 0 н/о ясно +23.6 +13.0 51 +26 +26 жарко 999.7 918.2
00 17.07 штиль 0 20 км 8/4 600 м
[Cb cap Ac trans]
+20.2 +12.2 60 +22 +22 комфорт 1000.1 917.8
03 17.07 В 1 20 км 8/3 600 м
[Cb cap Ac trans Ci fib]
+27.4 +13.4 42 +29 +33 жарко 1000.6 919.4 +20.5
06 17.07 СВ 2 20 км {гроза} 8/3 600 м
[Cb cap Ac trans Ci fib]
+31.2 +12.3 31 +32 +40 жарко 999.3 919.1
09 17.07 ЮЗ 2 20 км 8/3 600 м
[Cb cap Ac trans]
+30.9 +10.5 28 +31 +37 жарко 999.1 918.8
12 17.07 З 1 20 км 6/6 600 м
[Cb cap]
+32.2 +9.3 24 +31 +33 жарко 998.6 918.6
15 17.07 СВ 1 н/о 6/0
[Ac trans]
+29.2 +12.3 35 +30 +30 жарко 1000.5 919.7 +34.7
18 17.07 штиль 0 н/о 3/0
[Ac lent]
+22.6 +14.5 60 +26 +26 жарко 1002.4 919.9 +34.7
21 17.07 ЮВ 1 н/о 4/0
[Ci fib]
+22.1 +11.1 50 +24 +24 комфорт 1002.9 920.1
00 18.07 штиль 0 20 км 6/0
[Ac lent]
+20.6 +11.2 55 +22 +22 комфорт 1004.3 920.9
03 18.07 СЗ 2 20 км 1/1 1000 м
[Cu hum]
+26.3 +12.1 41 +28 +34 жарко 1003.5 921.7 +18.9
06 18.07 СЗ 2 20 км 3/3 1000 м
[Cu hum]
+31.9 +10.6 27 +32 +44 жарко 1001.8 921.5
09 18.07 СЗ 2 20 км 3/3 1000 м
[Cu hum]
+32.7 +8.1 22 +31 +42 жарко 1001.1 921.1
12 18.07 СЗ 3 20 км 4/0
[Ac trans Ci fib]
+33.1 +8.6 22 +32 +35 жарко 1001.2 921.3
15 18.07 СЗ 1 н/о ясно +29.6 +11.8 33 +30 +30 жарко 1002.1 921.3 +34.7
18 18.07 штиль 0 н/о 3/0
[Ci fib]
+22.5 +12.7 54 +25 +25 комфорт 1004.7 921.9 +34.7
21 18.07 штиль 0 н/о 4/0
[Ci fib]
+21.1 +12.2 57 +23 +23 комфорт 1004.6 921.4
00 19.07 ЮВ 1 20 км ясно +20.1 +11.4 57 +23 +23 комфорт 1004.4 920.9
03 19.07 СВ 1 20 км 3/0
[Ci fib]
+25.8 +12.3 43 +27 +36 жарко 1003.4 921.3 +17.8
06 19.07 С 1 20 км 3/0
[Ci fib]
+31.2 +11.8 30 +32 +51 опасность
солнечного
удара
1001.4 921.1
09 19.07 ЮЗ 3 20 км 1/1 1000 м
[Cu hum]
+33.1 +9.2 23 +32 +44 жарко 1000.2 920.4
12 19.07 СЗ 2 20 км 1/1 1000 м
[Cu hum]
+33.4 +7.1 20 +32 +35 жарко 999.9 920.1
15 19.07 штиль 0 н/о 3/0
[Ac trans]
+29.3 +9.5 29 +29 +29 жарко 1000.6 919.7 +34.6
18 19.07 З 1 н/о 1/0
[Ac trans]
+25.3 +9.4 37 +26 +26 жарко 1001.2 919.3 +34.6
21 19.07 штиль 0 н/о ясно +20.1 +10.7 55 +21 +21 комфорт 1002.5 919.2
00 20.07 штиль 0 20 км 3/0
[Ci fib]
+18.3 +11.5 65 +19 +19 по сезону 1003.6 919.7
03 20.07 СЗ 1 20 км 3/0
[Ci fib]
+25.6 +10.6 39 +27 +35 жарко 1001.5 919.6 +16.9
06 20.07 З 2 20 км 3/3 1000 м
[Cu hum Ci fib]
+29.6 +11.0 32 +30 +43 жарко 1000.7 920.0
09 20.07 З 2 20 км 3/0
[Ac trans]
+33.4 +5.5 18 +31 +44 жарко 999.3 919.5

 

Местоположение метеостанции Бишкек (город Бишкек, Киргизия): широта 42.85 долгота 74.53 высота над уровнем моря 760 м.

В архиве по умолчанию представлена погода в Бишкеке за последнюю неделю. Архивные данные за месяц целиком и за предыдущие месяцы, начиная с января 2011 года, Вы можете получить, выбрав интересующий диапазон дат из раскрывающегося списка и нажав кнопку "Ввод!".


*Определитесь, кто Вы:
робот инопланетянин человек

Внимание! Время в таблицах - всемирное. Для получения местного времени необходимо прибавить поправку, которая в Бишкеке равна 6 ч.

Смотрите также архив погоды в соседних городах и на ближайших метеорологических станциях:

Погода в Байтике (Чуйская область, Киргизия) (22 км)
Погода в Иссык-Ате (город Бишкек, Киргизия) (28 км)
Погода в Яны-Жере (Чуйская область, Киргизия) (46 км)
Погода в Бериктасе (Жамбылская область, Казахстан) (49 км)
Погода в Кара-Балте (Чуйская область, Киргизия) (58 км)
Погода в Тео-Ашуу (Чуйская область, Киргизия) (58 км)
Погода в Токмоке (Чуйская область, Киргизия) (61 км)
Погода в Кордае (Жамбылская область, Казахстан) (66 км)
Погода в Сусамыре (Чуйская область, Киргизия) (90 км)
Погода в Отаре (Жамбылская область, Казахстан) (96 км)

Пояснения к столбцам:

Ветер - указаны скорость ветра в м/с - средняя за 10 мин, порывы в срок и между сроками (в фигурных скобках) и направление, откуда дует ветер: С - северный, СВ - северо-восточный, В - восточный, ЮВ - юго-восточный, Ю - южный, ЮЗ - юго-западный, З - западный, СЗ - северо-западный.
Видимость - горизонтальная дальность видимости в метрах или километрах. При видимости от 1 до 10 км при отсутствии осадков обычно наблюдается дымка, при ухудшении видимости до 1 км и менее - туман. В сухую погоду видимость может ухудшаться дымом, пылью или мглою.
Явления - указаны атмосферные явления, наблюдавшиеся в срок или в последний час перед сроком; фигурными скобками обозначены явления, наблюдавшиеся между сроками (за 1-3 часа до срока); квадратными скобками обозначены град или гололедные отложения с указанием их диаметра в мм.
Облачность - указаны через наклонную черту общая и нижняя облачность в баллах и высота нижней границы облаков в метрах; квадратными скобками обозначены формы облаков: Ci - перистые, Cs - перисто-слоистые, Cc - перисто-кучевые, Ac - высококучевые, As - высокослоистые, Sc - слоисто-кучевые, Ns - слоисто-дождевые, Cu - кучевые, Cb - кучево-дождевые. Подробнее классификацию облаков см. в Атласе облаков (PDF).
T - Температура воздуха - температура, измеренная на высоте 2 м над землей.
Td - Температура точки росы - температура, при понижении до которой содержащийся в воздухе водяной пар достигнет насыщения.
f - Относительная влажность воздуха - влажноcть воздуха, измеренная на высоте 2 м над землей.
Te - Эффективная температура - температура, которую ощущает одетый по сезону человек в тени. Характеристика душности погоды. При расчете учитывается влияние влажности воздуха и скорости ветра на теплоощущения человека.
Tes - Эффективная температура на солнце - температура, которую ощущает человек, с поправкой на солнечный нагрев. Характеристика знойности погоды. Зависит от высоты солнца над горизонтом, облачности и скорости ветра. Ночью, в пасмурную погоду, а также при ветре 12 м/с и более поправка равна нулю.
P - Атмосферное давление - приведенное к уровню моря атмосферное давление.
Po - Атмосферное давление - измеренное на уровне метеостанции атмосферное давление.
Tmin - Минимальная температура - минимум температуры воздуха на высоте 2 м над землей.
Tmax - Максимальная температура - максимум температуры воздуха на высоте 2 м над землей.
R - Количество осадков - Количество выпавших осадков за период времени, мм. При наведении курсора мыши на число - период времени, за который выпало указанное количество осадков.
R24 - Количество осадков - Количество выпавших осадков за 24 часа, мм.
S - Снежный покров - Высота снежного покрова, см. При наведении курсора мыши на число - состояние снежного покрова и степень покрытия местности в баллах.